FW6296 Weather Reports


Display with metric or nautical units.
time (UTC)temp
F
wind
direction
speed
MPH
gust
MPH
rain 1hr
in
rain 24hr
in
rain mn
in
humidity
%
barometer
mb
20260906002536 76 106 4.0 10.0 0.00 0.00 0.00 78 1014.9
20260906001516 76 113 4.0 9.0 0.00 0.00 0.00 77 1014.9
20260906000537 77 78 3.0 8.0 0.00 0.00 0.00 75 1015.1
20260905235517 77 104 5.0 10.0 0.00 0.00 0.00 75 1015.0
20260905234517 78 90 3.0 8.0 0.00 0.00 0.00 74 1015.0
20260905233517 79 103 3.0 10.0 0.00 0.00 0.00 72 1015.0
20260905232517 80 109 4.0 9.0 0.00 0.00 0.00 70 1014.8
20260905231518 80 89 3.0 11.0 0.00 0.00 0.00 70 1014.6
20260905230518 81 97 4.0 9.0 0.00 0.00 0.00 68 1014.5
20260905225518 82 86 3.0 8.0 0.00 0.00 0.00 66 1014.4
20260905224518 82 97 4.0 9.0 0.00 0.00 0.00 67 1014.3
20260905223515 82 94 3.0 7.0 0.00 0.00 0.00 68 1014.3
20260905222515 81 71 3.0 7.0 0.00 0.00 0.00 67 1014.3
20260905221517 81 91 4.0 9.0 0.00 0.00 0.00 69 1014.6
20260905220536 82 93 4.0 9.0 0.00 0.00 0.00 68 1014.6
20260905215516 82 58 3.0 9.0 0.00 0.00 0.00 68 1014.6
20260905214516 82 81 3.0 7.0 0.00 0.00 0.00 68 1014.4
20260905213516 82 74 3.0 8.0 0.00 0.00 0.00 69 1014.3
20260905212517 84 53 4.0 10.0 0.00 0.00 0.00 66 1014.2
20260905211517 84 72 3.0 9.0 0.00 0.00 0.00 66 1014.3
20260905210517 84 93 5.0 9.0 0.00 0.00 0.00 67 1014.2
20260905205517 85 98 4.0 11.0 0.00 0.00 0.00 66 1014.2
20260905204517 84 9 3.0 7.0 0.00 0.00 0.00 65 1014.3
20260905203517 84 44 3.0 7.0 0.00 0.00 0.00 66 1014.4
20260905202518 85 85 3.0 9.0 0.00 0.00 0.00 66 1014.4
20260905201519 86 95 4.0 10.0 0.00 0.00 0.00 64 1014.3
20260905200538 86 81 3.0 13.0 0.00 0.00 0.00 64 1014.3
20260905195518 86 88 4.0 7.0 0.00 0.00 0.00 65 1014.2
20260905194518 86 95 4.0 11.0 0.00 0.00 0.00 66 1014.2
20260905193536 85 56 3.0 8.0 0.00 0.00 0.00 66 1014.3
20260905192515 86 89 4.0 10.0 0.00 0.00 0.00 65 1014.3
20260905191516 86 88 4.0 8.0 0.00 0.00 0.00 66 1014.4
20260905190516 86 60 3.0 8.0 0.00 0.00 0.00 65 1014.4
20260905185516 85 95 2.0 9.0 0.00 0.00 0.00 67 1014.5
20260905184516 85 89 4.0 11.0 0.00 0.00 0.00 67 1014.4
20260905183516 85 99 5.0 12.0 0.00 0.00 0.00 68 1014.4
20260905182537 87 90 4.0 10.0 0.00 0.00 0.00 65 1014.3
20260905181517 86 99 3.0 9.0 0.00 0.00 0.00 65 1014.4
20260905180517 87 93 4.0 9.0 0.00 0.00 0.00 64 1014.3
20260905175517 88 98 4.0 8.0 0.00 0.00 0.00 62 1014.3
20260905174517 87 44 3.0 8.0 0.00 0.00 0.00 62 1014.3
20260905173518 87 81 3.0 8.0 0.00 0.00 0.00 64 1014.3
20260905172518 87 47 3.0 7.0 0.00 0.00 0.00 63 1014.4
20260905171518 87 59 3.0 7.0 0.00 0.00 0.00 64 1014.5
20260905170518 87 91 3.0 9.0 0.00 0.00 0.00 65 1014.6
20260905165518 86 76 3.0 9.0 0.00 0.00 0.00 65 1014.6
20260905164515 87 90 3.0 9.0 0.00 0.00 0.00 65 1014.6
20260905163515 86 88 4.0 8.0 0.00 0.00 0.00 67 1014.6
20260905162516 86 95 4.0 8.0 0.00 0.00 0.00 67 1014.7
20260905161535 86 79 4.0 8.0 0.00 0.00 0.00 68 1014.7
20260905160516 86 80 2.0 7.0 0.00 0.00 0.00 69 1014.6
20260905155516 84 91 5.0 11.0 0.00 0.00 0.00 72 1014.6
20260905154516 84 91 6.0 11.0 0.00 0.00 0.00 73 1014.5
20260905153516 84 77 3.0 9.0 0.00 0.00 0.00 73 1014.4
20260905152516 83 57 3.0 7.0 0.00 0.00 0.00 74 1014.4
20260905151517 83 61 3.0 9.0 0.00 0.00 0.00 75 1014.3
20260905150538 83 97 4.0 9.0 0.00 0.00 0.00 75 1014.1
20260905145517 84 22 2.0 8.0 0.00 0.00 0.00 74 1014.2
20260905144517 83 44 2.0 6.0 0.00 0.00 0.00 76 1014.2
20260905143518 83 71 3.0 9.0 0.00 0.00 0.00 76 1014.1
20260905142518 82 103 2.0 8.0 0.00 0.00 0.00 78 1013.9
20260905141518 82 91 2.0 5.0 0.00 0.00 0.00 78 1013.8
20260905140518 81 93 3.0 7.0 0.00 0.00 0.00 79 1013.7
20260905135518 81 89 2.0 5.0 0.00 0.00 0.00 80 1013.8
20260905134516 81 98 3.0 8.0 0.00 0.00 0.00 81 1014.1
20260905133516 82 89 3.0 9.0 0.00 0.00 0.00 79 1014.2
20260905132516 81 94 5.0 8.0 0.00 0.00 0.00 81 1014.0
20260905131516 81 96 3.0 5.0 0.00 0.00 0.00 83 1013.8
20260905130516 81 93 3.0 7.0 0.00 0.00 0.00 84 1013.6
20260905125516 80 34 1.0 3.0 0.00 0.00 0.00 85 1013.6
20260905124517 79 335 0.0 3.0 0.00 0.00 0.00 87 1013.4
20260905123516 78 59 0.0 3.0 0.00 0.00 0.00 89 1013.2
20260905122557 78 59 0.0 2.0 0.00 0.00 0.00 89 1013.1
20260905121517 77 0.0 0.0 0.00 0.00 0.00 90 1013.0
20260905120517 77 0.0 0.0 0.00 0.00 0.00 91 1012.9
20260905115517 77 0.0 0.0 0.00 0.00 0.00 92 1012.9
20260905114537 77 0.0 0.0 0.00 0.00 0.00 90 1012.8
20260905113517 77 0.0 0.0 0.00 0.00 0.00 90 1012.7
20260905112517 77 241 0.0 2.0 0.00 0.00 0.00 90 1012.5
20260905111518 77 244 1.0 3.0 0.00 0.00 0.00 91 1012.5
20260905110518 77 0.0 0.0 0.00 0.00 0.00 91 1012.6
20260905105518 76 0.0 0.0 0.00 0.00 0.00 92 1012.6
20260905104539 76 0.0 0.0 0.00 0.00 0.00 91 1012.7
20260905103536 76 117 0.0 1.0 0.00 0.00 0.00 91 1012.7
20260905102516 76 0.0 0.0 0.00 0.00 0.00 90 1012.7
20260905101516 77 0.0 0.0 0.00 0.00 0.00 89 1012.7
20260905100516 78 0.0 0.0 0.00 0.00 0.00 88 1012.7
20260905095536 78 0.0 0.0 0.00 0.00 0.00 88 1012.6
20260905094516 78 225 0.0 2.0 0.00 0.00 0.00 88 1012.5
20260905093517 79 241 0.0 2.0 0.00 0.00 0.00 88 1012.6
20260905092516 79 278 0.0 2.0 0.00 0.00 0.00 87 1012.7
20260905091537 79 0.0 0.0 0.00 0.00 0.00 87 1012.7
20260905090517 79 0.0 0.0 0.00 0.00 0.00 87 1012.7
20260905085517 78 0.0 0.0 0.00 0.00 0.00 87 1012.7
20260905084517 78 254 0.0 1.0 0.00 0.00 0.00 88 1012.7
20260905083538 78 0.0 0.0 0.00 0.00 0.00 88 1012.7
20260905082518 78 0.0 0.0 0.00 0.00 0.00 88 1012.7
20260905081538 78 0.0 0.0 0.00 0.00 0.00 88 1012.7
20260905080518 78 2 0.0 2.0 0.00 0.00 0.00 88 1012.7
20260905075538 78 0.0 0.0 0.00 0.00 0.00 89 1012.6
20260905074516 77 0.0 0.0 0.00 0.00 0.00 90 1012.6
20260905073516 78 0.0 0.0 0.00 0.00 0.00 89 1012.6
20260905072536 78 0.0 0.0 0.00 0.00 0.00 89 1012.6
20260905071516 79 121 0.0 1.0 0.00 0.00 0.00 86 1012.7
20260905070516 79 0.0 0.0 0.00 0.00 0.00 87 1012.7
20260905065516 79 0.0 0.0 0.00 0.00 0.00 86 1012.7
20260905064516 79 0.0 0.0 0.00 0.00 0.00 86 1012.7
20260905063517 79 0.0 0.0 0.00 0.00 0.00 86 1012.8
20260905062517 79 241 0.0 2.0 0.00 0.00 0.00 86 1012.9
20260905061537 79 0.0 0.0 0.00 0.00 0.00 85 1012.9
20260905060537 79 0.0 0.0 0.00 0.00 0.00 85 1013.0
20260905055517 80 98 0.0 3.0 0.00 0.00 0.00 84 1013.0
20260905054517 80 0.0 0.0 0.00 0.00 0.00 83 1013.1
20260905053518 81 0.0 0.0 0.00 0.00 0.00 82 1013.0
20260905052538 81 222 0.0 2.0 0.00 0.00 0.00 81 1013.1
20260905051518 81 235 0.0 2.0 0.00 0.00 0.00 80 1013.0
20260905050518 81 234 0.0 3.0 0.00 0.00 0.00 80 1012.9
20260905045515 82 237 0.0 3.0 0.00 0.00 0.00 79 1012.9
20260905044516 82 241 0.0 2.0 0.00 0.00 0.00 79 1013.1
20260905043515 82 243 0.0 2.0 0.00 0.00 0.00 78 1013.2
20260905042516 82 0.0 0.0 0.00 0.00 0.00 78 1013.3
20260905041516 81 85 0.0 0.0 0.00 0.00 0.00 79 1013.3
20260905040516 81 223 0.0 2.0 0.00 0.00 0.00 81 1013.3
20260905035516 80 0.0 0.0 0.00 0.00 0.00 82 1013.4
20260905034537 81 0.0 0.0 0.00 0.00 0.00 82 1013.6
20260905033517 82 0.0 0.0 0.00 0.00 0.00 79 1013.6
20260905032517 83 0.0 0.0 0.00 0.00 0.00 78 1013.7
20260905031517 82 0.0 0.0 0.00 0.00 0.00 78 1013.7
20260905030517 82 0.0 0.0 0.00 0.00 0.00 78 1013.7
20260905025517 82 0.0 0.0 0.00 0.00 0.00 79 1013.7
20260905024538 82 0.0 0.0 0.00 0.00 0.00 78 1013.6
20260905023518 82 84 0.0 2.0 0.00 0.00 0.00 78 1013.5
20260905022519 82 91 0.0 1.0 0.00 0.00 0.00 79 1013.3
20260905021538 82 0.0 0.0 0.00 0.00 0.00 78 1013.3
20260905020515 83 84 1.0 3.0 0.00 0.00 0.00 76 1013.3
20260905015515 85 84 0.0 3.0 0.00 0.00 0.00 73 1013.2
20260905014516 86 97 0.0 1.0 0.00 0.00 0.00 70 1013.1
20260905013516 86 0.0 0.0 0.00 0.00 0.00 70 1012.9
20260905012516 86 0.0 0.0 0.00 0.00 0.00 69 1012.9
20260905011556 87 0.0 0.0 0.00 0.00 0.00 68 1012.7
20260905010536 87 244 0.0 2.0 0.00 0.00 0.00 67 1012.4
20260905005537 87 269 0.0 2.0 0.00 0.00 0.00 67 1012.4
20260905004517 87 229 0.0 3.0 0.00 0.00 0.00 66 1012.3
20260905003517 88 246 0.0 3.0 0.00 0.00 0.00 66 1012.6